Location: Marengo
(51.4813°N, 109.7825°W)
Time: 05:13:49
(UTC+00:00)

BlueWalker 3 - Pass Details

Date: 04 December 2022
Orbit: 499 x 517 km, 53.2° (Epoch: 28 January)

Event Time Altitude Azimuth Distance (km) Brightness Sun altitude
Rises 02:46:52 0° 289° (WNW) 2,628 6.6 -32.3°
Reaches altitude 10° 02:49:06 10° 286° (WNW) 1,735 5.5 -32.6°
Enters shadow 02:50:05 17° 282° (WNW) 1,353 4.8 -32.8°
